Wetbulb
25.62 27.48 27.62 26.33 25.64 27.12 22.09 23.82 17.56 21.42 23.67 27.77 30.05 30.85 31.52 34.02 37.21 38.38 39.29 40.19 40.65 40.18 39.39 39.04 39.00 39.94 41.26 42.58 43.77 44.79 46.32 48.28 48.49 49.66 50.12 50.55 51.58 51.74 51.89 53.08 52.61 52.22 52.44 51.86
17.78 25.19 24.68 23.11 25.54 26.20 27.47 27.57 26.80 27.92 27.00 34.16 34.58 32.13 31.04 34.52 37.37 37.56 38.67 39.65 40.73 40.06 39.62 39.43 38.30 39.40 41.02 41.79 42.86 43.79 43.94 45.27 47.94 48.35 48.17 48.35 48.54 49.80 50.36 50.40 50.96 49.82 49.27 48.19
17.90 24.97 21.92 17.10 24.34 26.50 26.20 27.78 28.93 23.62 29.21 31.82 32.02 34.63 34.48 35.01 36.25 37.47 38.75 39.36 40.20 40.03 39.76 39.12 39.26 39.96 40.04 41.42 42.71 42.61 42.96 44.00 45.62 46.50 46.43 46.10 47.13 47.25 47.67 48.28 49.14 47.06 46.41 46.11
19.24 21.55 16.96 28.21 31.17 29.97 28.82 30.13 31.32 30.71 31.47 33.05 33.79 34.78 35.46 35.96 36.24 36.73 38.88 39.75 40.35 39.79 40.02 39.73 40.00 39.97 40.40 41.89 41.72 42.04 41.99 42.66 43.70 44.70 44.75 45.26 44.79 44.63 44.77 45.71 46.06 45.88 44.29 44.21
17.78 18.00 25.30 27.85 28.97 28.14 26.53 27.87 32.40 32.21 33.91 34.52 34.03 33.30 33.11 36.84 37.41 38.00 38.18 39.56 40.21 40.00 40.05 39.77 39.60 39.97 39.98 40.53 40.69 41.10 41.12 41.56 42.49 43.26 42.95 43.31 43.05 43.00 42.81 42.27 42.68 43.03 43.05 42.36
21.88 18.20 20.36 27.82 28.72 32.77 30.64 23.65 32.27 33.33 33.60 31.97 32.64 26.64 29.64 35.94 37.48 37.87 39.35 39.94 39.81 39.89 40.37 39.61 39.26 39.45 39.38 39.59 39.53 39.58 40.66 41.23 41.90 42.33 41.74 40.95 41.54 41.62 41.91 41.41 41.38 42.02 41.87 42.11
21.30 20.93 25.16 32.07 32.20 33.51 21.73 27.66 33.03 33.90 34.08 33.14 31.90 33.07 34.57 38.07 38.40 38.30 39.15 40.03 40.28 39.70 39.40 39.64 39.52 39.36 38.48 39.05 38.71 40.63 41.80 41.55 41.16 41.20 40.98 40.87 40.31 40.19 40.59 40.69 41.12 40.30 39.68 39.82
21.63 21.02 21.41 33.53 32.57 28.09 31.67 31.61 33.31 33.06 33.72 33.79 35.19 35.36 36.53 38.08 37.94 39.59 39.49 40.09 40.56 38.87 38.65 39.29 39.58 39.18 38.20 38.38 39.98 41.05 41.27 40.70 40.11 39.89 41.05 40.41 39.26 38.80 38.64 38.03 37.40 37.29 37.50 37.73
27.21 26.86 35.76 35.43 34.01 36.19 35.42 34.28 33.52 32.96 35.51 35.74 35.24 35.59 36.50 37.14 37.30 38.13 39.18 39.82 40.46 39.20 38.46 38.67 39.25 39.14 37.89 38.31 39.45 40.20 40.05 39.37 38.89 39.16 39.38 39.32 38.14 37.24 36.58 36.38 35.84 35.48 35.63 34.91
30.71 33.17 36.55 37.31 37.70 38.26 37.20 36.08 36.91 37.37 37.24 36.25 35.68 36.17 35.93 36.20 36.58 37.67 38.64 39.11 39.73 38.70 38.08 37.89 38.18 39.11 38.79 38.59 38.92 38.97 38.35 37.81 37.96 37.70 37.62 37.72 38.11 37.48 36.16 35.05 34.46 34.78 34.69 33.61
31.50 35.42 36.01 37.43 38.69 39.22 39.18 38.11 37.25 37.16 37.53 37.68 36.55 36.08 36.43 36.10 36.23 37.03 38.90 39.46 39.65 39.19 39.07 38.82 38.23 39.31 39.26 38.96 37.99 37.25 37.10 37.11 37.35 37.50 37.07 36.48 36.38 35.82 35.40 34.71 35.08 33.73 33.74 33.40
32.44 40.08 38.58 38.78 41.63 39.13 37.46 36.62 37.09 35.75 35.64 35.94 36.98 37.86 36.93 37.58 37.32 36.86 36.76 37.97 38.73 39.16 39.18 38.88 38.01 39.02 38.47 39.08 38.35 37.26 36.46 36.70 36.85 36.51 35.91 35.44 35.04 34.17 39.40 38.19 38.31 38.28 37.75 33.99
37.54 41.30 41.03 41.72 41.70 41.91 40.43 40.31 40.18 37.36 37.85 37.13 36.19 37.89 36.74 37.55 36.17 38.22 36.64 36.79 38.52 39.08 39.11 38.17 37.81 37.75 38.66 39.15 38.01 36.78 36.45 37.31 37.18 36.94 35.76 34.70 34.15 33.17 32.02 34.85 37.74 37.45 36.57 35.80
40.58 40.41 37.83 39.73 38.30 40.67 40.03 39.70 40.08 38.54 37.58 36.72 37.62 35.88 36.63 36.49 36.54 36.51 36.43 37.86 38.58 38.77 37.67 37.20 37.23 37.30 37.91 39.34 38.56 37.26 36.33 38.87 36.59 36.85 36.47 35.68 34.59 33.31 32.71 31.85 29.76 29.15 34.80 35.40
39.70 41.07 40.04 41.46 41.34 41.15 42.56 42.62 40.04 37.42 38.56 38.82 36.21 35.81 34.99 35.03 35.34 36.34 37.34 37.39 37.52 37.04 37.18 36.73 36.64 36.57 37.19 38.93 38.52 37.33 36.79 36.22 35.92 35.11 34.56 34.76 33.30 32.89 33.13 31.63 29.66 28.98 29.38 31.41
40.53 39.74 39.17 38.82 39.02 40.13 40.66 40.50 39.07 38.88 38.74 37.82 34.75 34.75 35.64 36.11 36.02 35.07 35.68 36.23 35.93 36.06 36.54 36.83 36.79 36.77 36.68 38.00 37.49 36.87 36.41 37.64 36.23 32.77 32.90 32.10 31.81 31.34 32.01 28.74 27.85 27.33 27.52 27.82
35.82 35.21 36.97 36.98 37.74 38.55 38.99 39.89 39.88 39.32 39.16 37.35 35.72 36.00 34.76 33.58 33.82 33.42 34.34 35.47 36.64 36.63 37.14 36.85 37.03 35.49 36.48 37.25 36.90 36.10 36.03 36.67 37.28 32.46 30.56 30.66 31.65 32.34 29.99 27.59 27.04 27.11 27.28 29.89
39.77 39.69 39.73 39.24 38.56 38.72 39.31 39.89 39.21 38.94 36.59 36.71 35.60 34.01 32.98 32.59 33.32 34.08 34.30 35.25 35.34 34.95 34.93 35.64 34.59 34.82 36.03 36.07 36.16 35.09 34.96 36.29 35.39 34.33 33.15 32.21 31.33 28.51 27.54 27.07 27.04 26.33 26.57 28.10
39.46 38.82 39.02 39.36 39.39 38.70 38.62 39.04 39.12 36.95 36.20 35.63 33.54 32.91 33.37 32.94 33.23 34.36 34.62 33.90 33.05 32.78 33.28 32.87 36.27 35.70 34.42 35.31 35.47 34.53 34.08 34.97 33.84 32.17 31.65 32.38 29.47 27.38 25.56 25.19 24.60 24.36 24.36 26.14
36.47 36.70 35.28 34.49 34.87 34.55 34.91 35.41 35.20 34.81 34.83 34.07 33.13 31.75 31.02 31.39 31.81 32.37 32.72 32.70 33.75 34.63 33.09 33.15 35.60 33.75 32.79 35.40 36.31 32.99 32.47 33.06 31.79 30.29 29.63 27.29 25.83 25.10 23.72 26.77 24.26 24.00 23.28 24.35
34.30 33.95 33.85 33.73 32.90 33.18 33.23 33.08 33.05 32.62 32.83 32.69 31.91 31.33 30.77 31.16 32.19 32.22 30.05 29.52 31.64 33.62 33.42 35.39 34.03 32.36 33.49 35.25 33.67 31.48 31.60 30.37 29.65 28.43 26.03 24.07 24.80 22.07 21.78 21.59 22.10 22.09 21.74 21.03
33.84 33.54 34.33 34.13 33.04 32.68 33.29 33.48 33.20 32.78 32.27 32.39 32.07 31.75 31.69 31.45 31.06 31.46 31.79 30.62 31.39 36.54 33.31 32.42 31.80 33.58 33.73 35.26 29.93 30.39 29.30 28.36 25.32 23.34 21.62 21.15 20.64 19.48 17.74 17.38 16.28 18.79 17.50 15.29
33.75 34.31 34.46 34.28 33.70 33.13 32.80 32.52 32.40 32.28 31.47 31.12 31.01 31.01 31.09 31.23 31.27 30.62 30.48 31.94 31.46 34.44 30.72 29.77 33.08 35.81 36.49 27.93 28.35 28.35 26.51 24.33 23.18 22.22 20.33 19.35 18.29 16.83 15.26 14.47 15.15 15.59 13.93 15.25
33.42 33.61 33.14 33.48 33.14 32.83 31.95 31.47 31.23 30.34 30.59 31.22 31.41 31.66 31.55 31.35 31.40 31.53 31.73 34.23 34.99 32.82 29.97 32.40 35.04 36.68 31.07 27.14 27.23 25.75 24.09 22.66 20.76 19.72 19.55 21.39 15.51 13.96 13.02 13.16 13.29 14.86 14.77 15.50
31.30 31.08 29.83 31.08 31.65 31.39 31.12 30.75 29.26 29.41 30.30 29.74 30.77 31.50 32.05 32.25 32.06 31.01 30.81 31.80 33.67 31.07 32.08 35.71 35.99 32.25 27.54 25.79 24.80 23.19 20.67 18.32 16.18 19.01 17.66 15.96 14.10 13.24 13.20 15.27 14.79 14.49 14.12 13.07
29.66 29.56 31.86 31.74 33.30 32.15 31.40 30.51 29.20 28.12 28.64 29.10 29.06 29.86 29.84 30.24 30.53 29.78 30.35 30.55 30.22 32.47 32.14 31.77 28.05 26.07 24.92 23.94 22.71 21.42 20.29 21.31 20.68 18.18 17.32 15.79 14.98 14.07 14.08 14.28 13.78 14.19 13.71 11.68
27.86 31.98 26.18 29.98 31.03 31.10 31.14 30.96 29.94 28.49 31.12 30.12 28.41 27.73 27.81 27.97 29.81 29.84 30.84 29.82 29.37 28.04 26.88 26.47 25.78 24.35 22.43 21.10 19.73 18.78 17.28 17.06 18.99 16.42 15.33 15.03 13.55 13.74 15.15 14.24 13.04 12.90 12.85 12.95
MSLP
1021.52 1020.24 1019.52 1018.50 1018.36 1018.54 1018.93 1018.83 1018.74 1015.74 1014.45 1012.55 1011.98 1011.35 1010.92 1010.53 1010.24 1010.20 1009.98 1010.04 1010.23 1010.49 1010.73 1010.78 1010.43 1010.04 1009.42 1008.86 1008.07 1007.38 1006.64 1005.99 1005.72 1005.29 1004.65 1004.20 1003.71 1003.58 1003.00 1002.93 1003.16 1003.07 1003.56 1004.02
1021.44 1019.30 1018.68 1017.71 1016.58 1016.80 1016.82 1016.84 1016.47 1015.38 1013.56 1011.57 1010.58 1010.30 1010.21 1010.00 1009.97 1010.06 1009.86 1009.89 1010.00 1010.23 1010.36 1010.50 1010.36 1010.10 1009.77 1009.29 1008.64 1008.15 1007.63 1007.09 1006.87 1006.25 1005.80 1005.39 1004.94 1004.40 1004.29 1004.23 1004.54 1004.46 1004.98 1005.15
1021.79 1019.64 1018.24 1016.59 1013.60 1014.42 1014.25 1013.80 1013.84 1014.29 1011.22 1010.66 1010.20 1009.83 1009.60 1009.55 1009.51 1009.51 1009.48 1009.59 1009.72 1009.96 1010.22 1010.32 1010.25 1010.06 1009.85 1009.50 1009.05 1008.64 1008.31 1007.92 1007.62 1007.25 1006.84 1006.68 1006.19 1006.03 1006.09 1005.80 1005.92 1005.73 1006.30 1005.95
1021.82 1019.56 1017.03 1012.88 1011.85 1011.84 1011.99 1011.45 1011.52 1010.94 1010.02 1009.84 1009.38 1009.05 1008.76 1008.58 1008.59 1008.69 1008.90 1009.07 1009.36 1009.67 1009.93 1010.09 1010.08 1009.98 1009.84 1009.68 1009.52 1009.23 1008.94 1008.60 1008.34 1008.21 1008.04 1007.67 1007.28 1007.19 1007.28 1007.15 1006.73 1007.18 1007.33 1007.56
1021.92 1019.89 1015.47 1011.61 1011.33 1011.25 1011.00 1009.62 1009.00 1009.32 1008.88 1008.81 1008.96 1008.82 1008.08 1007.60 1007.59 1007.67 1007.88 1008.36 1008.72 1009.04 1009.55 1009.84 1009.90 1009.83 1009.79 1009.84 1009.85 1009.76 1009.55 1009.22 1009.02 1008.84 1008.73 1008.52 1008.36 1008.23 1008.05 1008.16 1008.18 1008.24 1008.35 1008.51
1021.23 1019.43 1015.45 1011.14 1010.24 1009.96 1009.95 1008.84 1007.13 1007.64 1007.94 1008.30 1008.86 1009.01 1007.67 1006.95 1006.75 1006.89 1007.35 1007.61 1008.15 1008.62 1009.06 1009.41 1009.70 1009.74 1009.85 1009.93 1009.99 1010.07 1009.94 1009.71 1009.52 1009.32 1009.14 1009.19 1009.14 1009.09 1009.04 1008.94 1009.03 1009.25 1009.61 1009.94
1020.29 1017.95 1013.73 1010.01 1009.47 1009.68 1009.55 1008.16 1006.64 1006.73 1006.75 1007.32 1008.02 1007.59 1006.98 1006.75 1006.75 1006.66 1006.91 1007.28 1007.84 1008.24 1008.45 1008.72 1009.04 1009.32 1009.76 1009.91 1009.96 1009.82 1009.80 1009.94 1009.90 1009.76 1009.65 1009.60 1009.64 1009.62 1009.77 1009.70 1009.89 1010.26 1010.66 1010.79
1017.97 1016.34 1012.05 1009.07 1009.26 1008.92 1007.13 1006.43 1006.43 1006.65 1006.66 1006.66 1006.16 1006.31 1006.59 1006.50 1006.62 1006.67 1006.76 1007.16 1007.40 1007.75 1008.08 1008.38 1008.65 1008.82 1009.12 1009.36 1009.38 1009.54 1009.63 1009.72 1009.89 1009.97 1009.86 1009.85 1010.01 1010.22 1010.31 1010.51 1010.60 1010.91 1011.32 1011.71
1013.81 1010.94 1008.23 1007.83 1007.09 1006.39 1006.38 1006.45 1006.24 1006.29 1006.25 1006.28 1006.36 1006.23 1006.06 1006.13 1006.12 1006.24 1006.47 1006.51 1006.75 1007.15 1007.65 1007.99 1008.20 1008.43 1008.83 1008.87 1009.04 1009.15 1009.31 1009.55 1009.71 1009.77 1009.85 1009.96 1010.23 1010.35 1010.50 1010.67 1010.99 1011.38 1011.59 1011.93
1010.88 1007.80 1007.47 1007.06 1006.50 1005.90 1005.82 1005.76 1005.57 1005.29 1005.30 1005.47 1005.56 1005.51 1005.56 1005.60 1005.72 1005.83 1005.84 1006.12 1006.24 1006.77 1007.12 1007.40 1007.70 1008.02 1008.23 1008.61 1008.85 1009.06 1009.33 1009.52 1009.68 1009.79 1009.96 1010.07 1010.14 1010.36 1010.72 1011.06 1011.34 1011.39 1011.62 1011.88
1007.98 1006.43 1006.51 1005.79 1005.05 1004.82 1004.51 1004.41 1004.58 1004.53 1004.43 1004.58 1004.80 1004.88 1004.66 1004.70 1004.85 1005.03 1005.02 1005.23 1005.63 1006.09 1006.35 1006.46 1006.91 1007.40 1007.64 1008.03 1008.47 1008.82 1009.11 1009.37 1009.62 1009.86 1010.18 1010.44 1010.59 1010.74 1011.00 1011.25 1011.18 1011.39 1011.67 1012.02
1005.87 1004.45 1004.66 1003.90 1003.69 1003.51 1003.69 1003.54 1003.39 1003.74 1003.66 1003.44 1003.73 1003.77 1003.83 1003.76 1003.84 1004.04 1004.29 1004.34 1004.75 1004.99 1005.36 1005.63 1005.93 1006.22 1006.85 1007.46 1007.96 1008.38 1008.86 1009.21 1009.44 1009.76 1010.16 1010.55 1010.90 1011.28 1011.29 1011.37 1011.46 1011.60 1011.79 1012.05
1004.56 1003.53 1003.29 1002.60 1002.87 1002.69 1003.30 1003.10 1002.48 1002.54 1002.35 1002.29 1002.31 1002.63 1002.71 1002.90 1002.91 1003.03 1003.35 1003.63 1003.69 1003.76 1004.08 1004.78 1005.22 1005.62 1005.87 1006.47 1007.19 1007.85 1008.39 1008.82 1009.24 1009.68 1010.08 1010.41 1010.68 1011.03 1011.47 1011.70 1011.72 1011.82 1011.93 1012.04
1004.22 1003.81 1002.37 1002.41 1001.76 1001.82 1001.95 1001.77 1001.60 1001.46 1001.24 1001.14 1001.18 1001.46 1001.67 1001.89 1002.16 1002.50 1002.62 1002.47 1002.74 1002.94 1003.15 1003.65 1004.28 1004.71 1005.01 1005.66 1006.43 1007.00 1007.56 1008.07 1008.63 1009.12 1009.54 1010.04 1010.51 1010.87 1011.01 1011.44 1011.70 1011.82 1011.80 1011.89
1002.73 1002.78 1001.61 1001.14 1001.13 1001.02 1000.98 1000.82 1000.65 1000.59 1000.39 1000.20 1000.24 1000.46 1000.81 1000.98 1001.18 1001.32 1001.44 1001.68 1001.90 1002.24 1002.58 1002.99 1003.47 1003.79 1004.27 1004.83 1005.55 1006.28 1007.00 1007.54 1007.99 1008.53 1009.15 1009.69 1010.17 1010.57 1010.81 1011.23 1011.58 1011.84 1011.98 1011.81
1001.54 1001.71 1001.36 1000.56 1000.36 1000.07 1000.08 999.82 999.57 999.18 999.36 999.33 999.50 999.77 999.83 999.84 999.95 1000.23 1000.51 1001.04 1001.52 1001.69 1001.92 1002.21 1002.45 1002.83 1003.57 1004.18 1004.87 1005.64 1006.49 1007.19 1007.79 1008.40 1009.07 1009.67 1010.12 1010.59 1010.74 1011.13 1011.43 1011.66 1011.75 1011.76
1001.54 1001.05 1000.22 999.72 999.61 999.31 999.04 998.82 998.64 998.33 998.33 998.38 998.62 998.76 999.05 999.32 999.51 999.77 999.95 1000.29 1000.51 1000.59 1000.95 1001.36 1001.60 1002.24 1002.92 1003.69 1004.47 1005.33 1006.14 1007.00 1007.74 1008.46 1009.05 1009.44 1009.79 1010.13 1010.53 1010.88 1011.12 1011.43 1011.70 1011.73
1000.00 999.72 999.41 998.97 998.65 998.43 998.12 998.05 997.88 997.70 997.65 997.60 997.92 998.39 998.79 999.23 999.32 999.32 999.34 999.62 1000.03 1000.16 1000.60 1000.69 1001.01 1001.59 1002.27 1003.21 1004.07 1004.94 1005.75 1006.43 1007.36 1007.99 1008.62 1009.32 1009.85 1010.10 1010.46 1010.87 1011.10 1011.30 1011.58 1011.76
999.11 998.86 998.75 998.34 998.14 998.04 997.82 997.56 997.19 997.01 997.05 997.22 997.48 998.12 998.39 998.77 999.03 998.97 999.04 999.37 999.80 1000.09 1000.15 1000.81 1001.09 1001.31 1001.96 1002.67 1003.56 1004.55 1005.58 1006.36 1007.13 1007.70 1008.39 1008.97 1009.53 1010.32 1010.81 1011.05 1011.29 1011.57 1011.79 1011.93
999.11 998.88 998.66 998.43 998.13 997.88 997.35 997.22 997.02 996.91 996.99 997.22 997.30 997.94 998.39 998.75 999.01 999.03 998.99 999.13 999.17 999.59 999.79 1000.39 1001.05 1001.40 1001.95 1002.72 1003.26 1004.35 1005.35 1006.24 1006.85 1007.78 1008.49 1009.12 1009.77 1010.26 1010.64 1011.15 1011.49 1011.69 1011.89 1012.11
999.30 999.01 998.80 998.05 998.06 997.92 997.61 997.39 997.40 997.34 997.37 997.43 997.78 998.03 998.50 998.75 999.00 999.12 999.35 999.42 999.19 999.53 1000.03 1000.58 1001.00 1001.45 1001.90 1002.66 1003.46 1004.27 1005.36 1006.19 1006.92 1007.67 1008.59 1009.34 1009.81 1010.38 1010.88 1011.32 1011.69 1012.00 1012.24 1012.36
999.30 998.86 998.99 997.83 998.06 998.16 997.85 997.73 997.76 997.72 997.70 997.77 997.90 997.94 998.39 998.82 999.05 999.32 999.56 999.72 999.40 999.61 1000.19 1000.83 1001.59 1001.80 1002.21 1002.97 1003.95 1004.69 1005.52 1006.52 1007.26 1007.92 1008.87 1009.52 1010.08 1010.73 1011.21 1011.63 1012.00 1012.20 1012.42 1012.54
999.51 998.82 998.59 998.80 997.86 998.29 998.43 998.18 998.07 998.18 998.25 998.33 998.22 998.12 998.40 998.83 999.17 999.55 999.73 999.78 999.63 999.85 1000.17 1000.87 1001.59 1002.06 1002.69 1004.01 1004.59 1005.15 1006.16 1007.00 1007.68 1008.40 1009.21 1009.79 1010.31 1010.80 1011.34 1011.66 1012.00 1012.28 1012.38 1012.40
999.46 999.11 998.64 998.82 998.07 998.54 998.37 998.39 998.57 998.82 998.89 999.04 998.93 998.75 998.79 999.16 999.50 999.65 999.68 999.83 1000.05 1000.21 1000.46 1001.03 1001.58 1002.26 1003.35 1004.35 1005.05 1005.80 1006.65 1007.33 1007.92 1008.40 1009.58 1010.28 1010.57 1011.01 1011.47 1011.79 1011.94 1012.13 1012.18 1012.11
999.80 999.41 998.97 999.38 998.43 998.60 998.50 998.64 998.88 999.08 998.85 999.16 999.53 999.37 999.16 999.08 999.40 1000.02 1000.13 1000.38 1000.51 1000.68 1001.05 1001.47 1001.94 1003.01 1003.84 1004.67 1005.73 1006.63 1007.43 1008.21 1008.65 1009.16 1009.81 1010.77 1011.02 1011.46 1011.75 1011.89 1012.06 1012.00 1011.96 1011.92
999.29 998.98 998.82 998.57 998.36 997.80 998.32 998.74 999.00 999.22 999.36 999.74 999.88 999.92 999.70 999.78 999.89 1000.16 1000.72 1001.14 1001.27 1001.37 1001.96 1002.52 1003.18 1003.65 1004.34 1005.23 1006.30 1006.94 1007.64 1008.25 1008.80 1009.39 1010.00 1010.66 1010.82 1011.25 1011.63 1011.84 1011.88 1011.79 1011.75 1011.56
998.62 998.52 998.40 998.20 998.29 998.18 998.00 998.74 999.13 999.27 999.34 999.28 999.44 999.97 1000.15 1000.42 1000.44 1000.94 1001.42 1001.59 1001.95 1002.48 1003.09 1003.49 1004.04 1004.56 1005.31 1006.03 1006.94 1007.64 1008.13 1008.56 1009.11 1009.69 1010.50 1010.96 1011.20 1011.40 1011.73 1011.79 1011.82 1011.79 1011.50 1011.22
Wind_Speed
10 17 14 15 13 11 11 10 8 5 7 7 9 12 10 9 8 7 6 5 4 2 2 4 6 7 7 7 8 9 9 12 12 11 12 12 11 10 8 11 11 11 11 11
8 8 10 8 14 17 18 16 19 21 29 20 18 9 6 7 6 7 6 6 6 2 1 2 4 5 6 6 7 7 8 9 8 9 11 12 13 14 14 14 12 15 13 12
8 6 8 7 9 15 7 6 18 14 15 7 7 7 7 8 8 8 8 7 7 5 3 2 2 3 4 5 6 7 7 9 9 9 10 10 9 11 11 11 10 14 11 13
6 7 4 6 4 7 14 7 16 10 13 9 7 7 8 9 9 9 8 8 7 6 4 4 1 3 4 4 5 6 7 8 8 9 8 8 9 10 9 8 10 10 11 11
2 2 11 4 4 6 7 8 18 20 19 14 8 4 8 8 9 10 9 8 7 7 6 4 4 1 2 4 5 5 6 6 6 6 7 8 9 7 7 7 9 9 10 10
1 2 6 5 2 3 3 7 6 12 14 7 5 3 7 5 4 8 8 7 8 8 6 6 5 3 3 3 4 4 4 5 5 5 6 6 6 6 5 5 7 8 9 9
5 5 12 10 5 2 1 8 2 7 8 9 7 9 4 4 4 5 7 9 7 7 8 8 7 7 6 4 3 3 4 4 4 4 5 5 5 4 5 7 9 8 8 6
5 4 12 7 4 8 7 4 3 3 5 6 9 6 7 8 7 7 9 7 8 8 7 7 7 7 7 7 6 5 3 5 5 4 3 4 6 5 6 6 6 6 6 5
13 12 4 10 8 8 4 4 4 3 7 7 8 8 8 8 9 9 9 8 7 8 8 7 8 7 7 6 7 6 6 6 4 4 5 5 5 5 4 5 5 4 4 4
1 9 20 10 13 11 6 10 10 11 10 7 9 9 8 8 8 8 8 9 7 8 8 9 7 7 7 7 7 6 6 6 5 5 5 4 4 4 4 4 4 4 4 3
14 17 14 19 21 19 17 11 11 10 12 14 10 10 10 9 9 9 10 9 8 10 11 12 8 9 8 8 8 7 6 6 5 4 5 4 3 3 4 1 3 3 2 3
17 18 11 18 20 10 9 8 9 9 9 10 11 15 11 12 9 8 9 7 9 11 12 11 10 11 9 8 9 8 6 5 5 5 4 4 4 3 2 6 5 5 7 5
28 27 25 26 19 19 18 21 19 11 15 15 11 13 10 12 7 10 8 8 12 15 14 10 10 11 10 10 10 8 7 7 5 5 5 5 4 5 5 1 6 8 8 7
20 23 26 24 19 13 13 15 14 11 11 9 13 8 9 10 7 8 10 12 11 10 10 11 11 11 10 11 11 9 7 11 6 6 5 4 4 4 4 3 3 1 3 4
28 23 25 25 21 23 21 21 19 14 16 17 10 11 9 10 11 12 10 8 8 8 9 9 10 10 10 11 12 11 8 6 6 5 5 6 4 4 4 3 2 2 1 2
21 14 17 22 20 23 20 21 20 18 14 14 9 10 13 13 11 9 8 7 8 10 10 11 12 10 10 11 11 8 7 11 8 5 5 4 4 4 3 4 3 2 1 1
18 20 23 22 19 20 20 18 18 16 13 9 10 10 9 8 8 7 7 8 9 8 10 12 12 9 10 10 11 7 6 6 11 5 4 4 4 4 3 4 3 2 1 1
24 23 23 22 20 19 18 18 14 13 11 9 7 7 7 7 10 9 9 7 6 6 8 9 8 9 10 10 10 7 7 7 7 6 5 4 3 3 4 3 3 3 1 1
19 18 18 20 17 15 14 15 12 10 7 6 5 6 6 6 5 6 5 6 7 7 7 6 12 12 10 12 12 8 7 7 6 5 4 6 5 4 2 3 3 2 1 1
12 10 9 11 9 8 9 6 6 4 4 3 3 2 4 5 5 6 5 7 7 5 7 8 11 9 9 13 16 7 7 7 7 6 5 4 4 4 3 4 3 3 2 1
9 6 9 4 8 8 6 4 4 3 3 2 4 4 4 4 3 2 2 2 3 5 6 12 9 7 7 11 10 7 7 6 7 7 5 5 5 4 4 3 3 2 2 2
7 5 8 5 6 8 7 5 3 1 2 2 3 3 2 1 1 1 2 4 2 9 6 5 4 11 9 15 6 6 7 6 5 5 4 4 5 4 4 4 3 2 2 1
8 5 3 6 4 1 3 4 4 4 3 1 1 3 3 2 2 2 2 2 3 8 5 5 11 17 19 6 5 7 7 7 6 5 5 4 4 4 4 3 2 2 0 1
8 6 3 5 3 1 3 4 4 4 3 3 2 2 3 3 3 2 0 5 9 10 6 9 13 19 14 6 7 7 6 6 6 6 5 8 4 4 3 2 2 0 1 3
8 6 2 5 4 3 1 2 3 1 2 2 2 1 3 3 3 2 3 4 12 8 6 15 19 18 8 7 7 6 6 5 5 5 6 4 4 3 2 2 0 2 2 2
5 5 5 7 7 5 3 2 2 2 2 3 2 1 3 3 4 5 4 7 5 10 7 8 7 8 8 8 7 7 7 7 7 6 6 5 5 4 3 1 1 2 3 3
5 8 3 3 3 4 4 4 4 4 5 4 4 3 4 3 5 6 8 6 6 7 8 7 7 9 8 8 7 6 5 5 8 5 4 3 3 2 1 1 2 3 3 3
Wind_Direction
256 262 262 253 241 207 198 194 192 263 269 265 268 265 253 253 231 221 229 249 237 264 331 337 341 341 350 345 357 355 9 25 26 16 25 24 34 45 40 62 74 62 70 70
282 266 237 253 236 227 231 227 246 262 279 280 272 269 255 244 217 229 225 244 230 230 12 346 335 343 345 348 3 359 10 23 31 28 32 24 26 36 42 42 48 66 54 59
271 328 313 309 228 200 197 197 216 228 237 253 261 229 237 241 231 231 227 222 213 208 211 253 299 327 352 7 8 16 17 19 24 30 39 39 41 45 45 51 59 58 63 62
273 336 331 252 166 181 205 223 214 245 243 231 232 247 246 230 217 227 222 211 199 190 188 212 270 332 339 38 40 30 22 27 24 30 30 34 50 51 46 55 63 72 61 55
258 242 289 299 202 174 174 278 218 226 250 253 256 265 281 232 220 214 201 204 197 182 181 184 188 248 53 58 51 40 31 32 33 39 39 34 37 39 44 51 62 64 59 58
298 211 259 229 263 226 182 292 218 195 229 241 148 287 260 244 235 214 204 182 171 172 170 165 200 175 132 121 94 70 53 54 52 55 60 50 49 40 37 58 65 70 68 63
221 254 275 252 174 147 235 248 286 196 208 169 182 206 233 210 249 210 193 184 176 178 176 189 178 165 161 163 175 176 124 100 75 65 78 78 62 54 64 70 76 68 69 58
186 221 273 157 92 175 216 271 260 251 251 226 220 233 223 225 225 212 197 190 185 178 193 196 183 169 176 183 190 181 146 124 118 94 72 71 77 74 81 90 95 92 88 73
193 215 254 197 210 226 223 224 263 246 262 239 251 250 234 229 219 216 212 203 192 189 196 202 194 188 187 206 179 175 160 159 147 121 110 99 97 87 69 66 79 83 93 84
245 228 250 240 253 256 239 237 243 236 236 231 235 240 248 242 234 220 215 214 199 190 201 211 201 198 198 180 181 170 173 172 163 148 139 123 95 101 114 118 120 121 115 104
254 263 282 267 262 270 268 251 257 251 237 238 236 246 236 242 232 225 221 208 193 201 210 214 186 202 192 183 174 178 178 176 169 165 155 145 126 140 127 125 146 142 139 137
256 258 252 263 266 250 247 250 241 239 264 236 221 239 232 245 235 227 221 203 201 207 210 213 192 194 190 184 181 175 174 178 176 163 160 149 141 108 111 156 149 150 144 151
252 261 263 274 275 274 277 274 270 245 246 251 232 231 222 241 226 236 226 211 207 209 212 200 196 197 190 178 173 178 180 179 173 168 166 165 162 157 159 163 154 162 165 162
249 258 265 267 267 275 265 263 261 250 250 235 236 216 226 225 243 230 227 220 218 211 195 190 192 203 185 175 178 180 176 178 174 176 170 163 164 171 146 161 175 216 236 200
254 251 259 270 275 270 272 276 269 254 259 259 229 224 215 226 230 236 235 216 207 200 200 184 195 203 173 173 177 181 179 177 171 158 158 161 157 158 144 150 172 201 268 356
265 265 259 257 261 266 267 267 265 266 255 246 228 224 229 227 235 230 220 197 181 209 201 196 201 192 174 172 176 171 165 168 161 151 153 153 154 167 146 166 181 186 155 316
262 267 265 267 262 266 263 260 262 267 263 248 234 231 228 231 235 238 225 208 211 199 193 191 206 167 172 172 167 157 151 154 158 144 154 163 170 167 166 173 166 147 159 222
253 254 264 267 270 271 272 266 257 252 241 236 228 233 229 221 232 233 225 200 204 202 201 199 174 162 160 159 155 150 150 149 158 159 153 156 170 161 162 159 156 150 158 351
262 264 265 268 272 273 270 272 268 235 233 234 206 228 233 244 243 239 206 189 202 213 224 183 173 159 154 155 145 144 148 149 152 142 147 156 144 145 130 132 139 141 142 154
297 304 297 287 283 263 276 270 257 230 234 223 207 219 246 252 246 234 208 210 202 212 155 168 165 152 145 153 143 139 142 153 143 140 140 136 141 147 138 146 135 136 132 115
273 285 284 307 316 316 303 284 273 257 260 204 204 224 248 277 266 257 244 241 236 167 164 161 160 152 147 147 141 132 140 139 139 142 143 148 142 130 126 119 102 91 76 67
311 314 302 39 16 338 326 306 279 245 173 152 143 115 108 315 338 311 267 220 208 157 129 130 140 152 146 139 123 126 118 129 129 124 123 130 127 125 122 118 117 101 72 18
288 275 290 279 118 209 301 353 4 355 347 321 147 128 140 179 170 150 287 286 140 146 123 124 147 148 138 114 118 117 122 125 127 125 130 130 129 130 134 140 135 110 356 303
309 311 308 285 119 305 19 16 35 16 16 352 359 109 125 106 46 19 87 140 142 132 125 140 151 144 120 116 116 120 127 129 127 123 124 132 124 118 113 118 109 6 292 319
284 281 282 266 167 243 285 169 118 182 104 50 332 36 115 110 127 156 116 117 133 115 119 147 138 121 109 105 106 107 103 107 114 113 112 126 116 110 112 117 152 256 251 266
267 251 245 220 252 184 200 185 206 206 131 175 152 91 74 83 95 96 92 110 108 119 115 113 112 106 106 111 116 120 126 135 128 130 131 139 132 126 132 146 288 296 281 270
248 248 239 252 239 226 164 191 198 208 206 186 106 108 104 92 105 109 116 102 93 97 104 99 98 107 109 112 115 116 111 113 127 115 118 118 110 114 113 316 292 282 279 273